Home   Weather   Whitehorse   Past weeks
Flag for Canada

Past Weather in Whitehorse, Yukon, Canada — Yesterday and Last 2 Weeks

Now
70 °F

Scattered clouds.


Feels Like: 70 °F
Forecast: 69 / 46 °F
Wind: 2 mph from North

Location: Whitehorse

Current Time: Jun 20, 2019 at 2:54:07 pm

Latest Report: Jun 20, 2019 at 2:00 pm


Visibility: 40 mi

Pressure: 30.27 "Hg (28.10 "Hg at 640m altitude)

Humidity: 38%

Dew Point: 43 °F

Location of WhitehorseLocation

Past Weather in Whitehorse — Graph

°F

Whitehorse Temperature Yesterday

Maximum temperature yesterday: 63 °F (at 6:00 pm)
Minimum temperature yesterday: 45 °F (at 1:00 am)
Average temperature yesterday: 52 °F

High & Low Weather Summary for the Past Weeks

 TemperatureHumidityPressure
High73 °F (Jun 14, 6:00 pm)100% (Jun 6, 5:00 am)30.33 "Hg (Jun 6, 5:00 am)
Low39 °F (Jun 8, 6:09 am)27% (Jun 14, 8:00 pm)29.70 "Hg (Jun 17, 5:00 pm)
Average54 °F68%29.98 "Hg
* Reported Jun 5 1:00 pm — Jun 20 1:00 pm, Whitehorse. Weather by CustomWeather, © 2019

Note: Actual official high and low records may vary slightly from our data, if they occured in-between our weather recording intervals... More about our weather records

Advertising

Whitehorse Weather History for the Previous 24 Hours

Scroll right to see more
 ConditionsComfort  
Time TempWeatherWind HumidityBarometerVisibility
1:00 pm
Thu, Jun 20
66 °FScattered clouds.5 mph49%30.28 "Hg40 mi
12:00 pm64 °FScattered clouds.5 mph60%30.30 "Hg40 mi
11:00 am61 °FScattered clouds.5 mph68%30.32 "Hg40 mi
10:00 am57 °FPassing clouds.5 mph82%30.33 "Hg40 mi
9:00 am54 °FScattered clouds.8 mph82%30.33 "Hg40 mi
8:00 am50 °FScattered clouds.3 mph94%30.33 "Hg40 mi
7:00 am46 °FScattered clouds.5 mph100%30.33 "Hg40 mi
6:00 am46 °FFog.3 mph100%30.32 "Hg40 mi
5:12 am46 °FFog.3 mph100%30.32 "Hg0 mi
4:58 am48 °FFog.No wind94%30.31 "Hg0 mi
4:00 am48 °FCool.2 mph100%30.29 "Hg20 mi
3:00 am50 °FPartly cloudy.2 mph100%30.27 "Hg40 mi
2:00 am52 °FPassing clouds.5 mph94%30.25 "Hg40 mi
1:00 am52 °FPassing clouds.5 mph94%30.23 "Hg40 mi
12:00 am52 °FPassing clouds.3 mph94%30.23 "Hg40 mi
11:00 pm
Wed, Jun 19
54 °FScattered showers. Partly sunny.3 mph94%30.21 "Hg40 mi
10:00 pm59 °FSprinkles. Partly sunny.12 mph59%30.19 "Hg40 mi
9:00 pm63 °FBroken clouds.8 mph56%30.15 "Hg40 mi
8:00 pm63 °FBroken clouds.9 mph56%30.14 "Hg40 mi
7:00 pm63 °FBroken clouds.10 mph56%30.12 "Hg40 mi
6:00 pm63 °FBroken clouds.8 mph52%30.11 "Hg25 mi
5:00 pm61 °FBroken clouds.5 mph59%30.12 "Hg25 mi
4:00 pm61 °FBroken clouds.10 mph55%30.11 "Hg40 mi
3:00 pm59 °FPartly sunny.6 mph63%30.11 "Hg40 mi
2:00 pm57 °FBroken clouds.5 mph63%30.10 "Hg40 mi
Weather by CustomWeather, © 2019

See weather overview